Location: Castelbiague
(43.0361°N, 0.9246°E)
Time: 02:32:12
(UTC+00:00)

Cosmos 1455 Rocket - Visible Passes

Search period start: 23 October 2021 00:00
Search period end: 02 November 2021 00:00
Orbit: 606 x 628 km, 82.5° (Epoch: 22 October)

Date Brightness Start Highest point End Pass type
(mag) Time Alt. Az. Time Alt. Az. Time Alt. Az.
23 Oct 4.8 04:18:26 10° N 04:22:32 34° ENE 04:26:35 10° SE visible
23 Oct 4.8 18:27:56 10° SW 18:31:59 35° WNW 18:36:05 10° N visible
24 Oct 3.5 04:34:54 10° N 04:39:20 63° E 04:43:43 10° SSE visible
24 Oct 5.8 18:45:36 10° WSW 18:48:54 20° WNW 18:52:13 10° NNW visible
25 Oct 6.3 03:16:08 10° NE 03:17:41 12° ENE 03:19:13 10° E visible
25 Oct 3.0 04:51:36 10° NNW 04:56:03 70° W 05:00:26 10° S visible
25 Oct 3.1 17:23:10 10° S 17:27:33 70° E 17:32:00 10° NNE visible
25 Oct 6.3 19:04:18 10° W 19:05:54 12° WNW 19:07:31 10° NW visible
26 Oct 5.6 03:31:24 10° NNE 03:34:42 20° ENE 03:37:58 10° ESE visible
26 Oct 3.5 05:08:33 10° NNW 05:12:40 38° W 05:16:45 10° SSW visible
26 Oct 3.6 17:39:53 10° SSW 17:44:16 64° W 17:48:42 10° N visible
27 Oct 4.7 03:47:32 10° N 03:51:37 34° ENE 03:55:39 10° SE visible
27 Oct 4.2 05:25:50 10° NW 05:29:12 21° W 05:32:32 10° SW visible
27 Oct 4.9 17:57:01 10° SW 18:01:04 35° WNW 18:05:11 10° N visible
28 Oct 3.4 04:04:00 10° N 04:08:26 63° E 04:12:47 10° SSE visible
28 Oct 4.8 05:43:59 10° WNW 05:45:38 12° W 05:47:17 10° WSW visible
28 Oct 5.8 18:14:40 10° WSW 18:17:59 20° WNW 18:21:20 10° NNW visible
29 Oct 3.2 04:25:51 58° SSW 04:25:51 58° SSW 04:29:31 10° S visible
29 Oct 6.3 18:33:20 10° W 18:35:00 12° WNW 18:36:40 10° NW visible
30 Oct 5.2 04:45:23 12° SSW 04:45:23 12° SSW 04:45:49 10° SSW visible
31 Oct 4.9 17:26:05 10° SW 17:30:10 35° WNW 17:34:17 10° N visible
01 Nov 5.8 17:43:44 10° WSW 17:47:04 20° WNW 17:50:26 10° NNW visible
